This demonstration page uses our WeatherBlox Daily Observations layout. Learn more.

38.88101, -77.10428

Hourly Observations for October 21, 2016

Temp ( °F °C ) Dew Point ( °F °C ) Humidity (%) Winds ( mph kmh ) Pressure ( in mb ) Visibility ( mi km ) Precip ( " mm )
12:52 am 00:52 Partly Cloudy 70 21.1 67 19.4 90 90 S 13 20 29.88 1012 10 16.09344 0 0
1:52 am 01:52 Mostly Clear 70 21.1 64 17.8 82 82 S 14 22 29.85 1011 10 16.09344 0 0
2:52 am 02:52 Mostly Clear 69 20.6 65 18.3 87 87 S 10 17 29.83 1010 10 16.09344 0 0
3:52 am 03:52 Mostly Cloudy 69 20.6 65 18.3 87 87 S 12 19 29.8 1009 10 16.09344 0 0
4:52 am 04:52 Mostly Cloudy 68 20 65 18.3 90 90 S 14 22 29.8 1009 10 16.09344 0 0
5:52 am 05:52 Partly Cloudy 68 20 65 18.3 90 90 SSW 9 15 29.77 1008 10 16.09344 0 0
6:52 am 06:52 Partly Cloudy 67 19.4 65 18.3 93 93 S 12 19 29.77 1008 10 16.09344 0 0
7:52 am 07:52 Partly Cloudy 67 19.4 65 18.3 93 93 S 13 20 29.74 1007 10 16.09344 0 0
8:52 am 08:52 Partly Cloudy 69 20.6 66 18.9 90 90 S 10 17 29.71 1006 10 16.09344 0 0
9:52 am 09:52 Partly Cloudy 71 21.7 65 18.3 81 81 S 12 19 29.71 1006 10 16.09344 0 0
10:52 am 10:52 Mostly Sunny 73 22.8 65 18.3 76 76 S 12 19 29.68 1005 10 16.09344 0 0
11:52 am 11:52 Partly Cloudy 76 24.4 66 18.9 72 72 S 13 20 29.65 1004 10 16.09344 0 0
12:52 pm 12:52 Partly Cloudy 79 26.1 65 18.3 62 62 S 13 20 29.62 1003 10 16.09344 0 0
1:30 pm 13:30 Mostly Cloudy 77 25 64 18 65 65 S 13 20 29.59 1002 10 16.09344 0 0
1:52 pm 13:52 Mostly Cloudy 79 26.1 67 19.4 67 67 S 12 19 29.56 1001 10 16.09344 0 0
2:05 pm 14:05 Mostly Cloudy with Light Rain 76 24.4 64 17.8 67 67 W 29 46 29.59 1002 9 14.484096 0.001 0.001
2:08 pm 14:08 Cloudy with Light Rain 72 22 61 16 69 69 WNW 28 44 29.59 1002 9 14.484096 0 0
2:19 pm 14:19 Cloudy with Light Rain 66 18.9 60 15.6 81 81 WNW 26 43 29.59 1002 7 11.265408 0.001 0.001
2:25 pm 14:25 Cloudy with Rain 64 17.8 60 15.6 87 87 NW 17 28 29.59 1002 4 6.437376 0.001 0.001
2:29 pm 14:29 Cloudy with Rain 64 17.8 60 15.6 87 87 NW 16 26 29.59 1002 1.75 2.816352 0.03 0.762
2:42 pm 14:42 Cloudy with Rain 63 17 61 16 94 94 NW 14 22 29.59 1002 2.5 4.02336 0 0
2:52 pm 14:52 Cloudy with Heavy Rain 63 17.2 59 15 87 87 NNW 14 22 29.59 1002 3 4.828032 0.21 5.334
3:52 pm 15:52 Cloudy 64 17.8 59 15 84 84 NNW 9 15 29.59 1002 10 16.09344 0.05 1.27
4:52 pm 16:52 Cloudy 65 18.3 59 15 81 81 NW 10 17 29.59 1002 10 16.09344 0 0
5:52 pm 17:52 Cloudy 65 18.3 57 13.9 76 76 WNW 10 17 29.59 1002 10 16.09344 0 0
6:52 pm 18:52 Mostly Clear 65 18.3 55 12.8 70 70 undefined N/A 29.59 1002 N/A 0 0
7:52 pm 19:52 Cloudy with Light Rain 62 16.7 54 12.2 75 75 NW 17 28 29.59 1002 10 16.09344 0.001 0.001
8:52 pm 20:52 Cloudy 60 15.6 54 12.2 80 80 N 15 24 29.59 1002 10 16.09344 0.001 0.001
9:52 pm 21:52 Cloudy 60 15.6 53 11.7 78 78 NNW 12 19 29.59 1002 10 16.09344 0 0
10:31 pm 22:31 Cloudy 60 15.6 53 11.7 78 78 NNW 17 28 29.59 1002 10 16.09344 0 0
10:52 pm 22:52 Cloudy 60 15.6 52 11.1 75 75 NW 15 24 29.59 1002 10 16.09344 0 0
10:56 pm 22:56 Cloudy 60 15.6 52 11.1 75 75 NW 14 22 29.59 1002 10 16.09344 0 0
11:52 pm 23:52 Cloudy 60 15.6 50 10 70 70 NW 16 26 29.59 1002 10 16.09344 0 0

Powered by AerisWeather